When you browse on this site, cookies collect data to enhance your experience and personalize the content and advertising you see.
Visit our Privacy Policy to learn more. By continuing to use the site, you agree to this use of cookies and data.
  • In Hungary
  • List of Countries
  • For 7 days
  • Water Temperature
  • Weather Map
  • News
  • Weather Widgets
  • user-avatar
    Login

    Hourly Weather Montgomery

    Today, 15 November, Friday

    Time Temperature Precipitation Wind Pressure Humidity
    00:00 +7°C° 2.4 mm 2 mps 761 mmHg 97%
    01:00 +7°C° 1.1 mm 2 mps 760 mmHg 97%
    02:00 +7°C° 1.1 mm 2 mps 760 mmHg 96%
    03:00 +7°C° 1.1 mm 2 mps 760 mmHg 96%
    04:00 +7°C° 0.5 mm 3 mps 760 mmHg 95%
    05:00 +7°C° 0.5 mm 3 mps 760 mmHg 94%
    06:00 +6°C° 0.5 mm 4 mps 760 mmHg 93%
    07:00 +6°C° 0.1 mm 4 mps 760 mmHg 90%
    08:00 +7°C° 0.1 mm 3 mps 760 mmHg 88%
    09:00 +7°C° 0.1 mm 3 mps 760 mmHg 85%
    10:00 +6°C° 0.9 mm 4 mps 760 mmHg 87%
    11:00 +5°C° 0.9 mm 4 mps 760 mmHg 88%
    12:00 +5°C° 0.9 mm 4 mps 759 mmHg 89%
    13:00 +5°C° 0.7 mm 4 mps 759 mmHg 88%
    14:00 +6°C° 0.7 mm 4 mps 759 mmHg 87%
    15:00 +6°C° 0.7 mm 4 mps 758 mmHg 86%
    16:00 +7°C° 0.1 mm 3 mps 759 mmHg 85%
    17:00 +7°C° 0.1 mm 2 mps 759 mmHg 85%
    18:00 +8°C° 0.1 mm 1 mps 759 mmHg 85%
    19:00 +7°C° 0 mm 2 mps 759 mmHg 85%
    20:00 +7°C° 0 mm 2 mps 759 mmHg 85%
    21:00 +7°C° 0 mm 2 mps 759 mmHg 85%
    22:00 +6°C° 0 mm 2 mps 759 mmHg 85%
    23:00 +6°C° 0 mm 2 mps 759 mmHg 86%

    Tomorrow, 16 November, Saturday

    Time Temperature Precipitation Wind Pressure Humidity
    00:00 +5°C° 0 mm 2 mps 759 mmHg 87%
    01:00 +5°C° 0 mm 2 mps 758 mmHg 88%
    02:00 +4°C° 0 mm 2 mps 758 mmHg 88%
    03:00 +4°C° 0 mm 2 mps 758 mmHg 89%
    04:00 +4°C° 0 mm 2 mps 758 mmHg 90%
    05:00 +3°C° 0 mm 2 mps 759 mmHg 90%
    06:00 +3°C° 0 mm 2 mps 759 mmHg 91%
    07:00 +4°C° 0 mm 2 mps 759 mmHg 85%
    08:00 +6°C° 0 mm 2 mps 759 mmHg 80%
    09:00 +8°C° 0 mm 2 mps 759 mmHg 74%
    10:00 +10°C° 0 mm 2 mps 759 mmHg 68%
    11:00 +12°C° 0 mm 1 mps 759 mmHg 63%
    12:00 +14°C° 0 mm 1 mps 758 mmHg 57%
    13:00 +15°C° 0 mm 1 mps 758 mmHg 57%
    14:00 +15°C° 0 mm 1 mps 757 mmHg 56%
    15:00 +15°C° 0 mm 2 mps 757 mmHg 56%
    16:00 +13°C° 0 mm 2 mps 757 mmHg 62%
    17:00 +12°C° 0 mm 1 mps 757 mmHg 68%
    18:00 +10°C° 0 mm 1 mps 758 mmHg 74%
    19:00 +9°C° 0 mm 1 mps 758 mmHg 76%
    20:00 +9°C° 0 mm 1 mps 758 mmHg 78%
    21:00 +8°C° 0 mm 1 mps 758 mmHg 80%
    22:00 +8°C° 0 mm 1 mps 758 mmHg 84%
    23:00 +8°C° 0 mm 1 mps 758 mmHg 87%

    Day after tomorrow, 17 November, Sunday

    Time Temperature Precipitation Wind Pressure Humidity
    00:00 +6°C° 0 mm 0 mps 757 mmHg 90%
    01:00 +7°C° 0 mm 1 mps 757 mmHg 89%
    02:00 +7°C° 0 mm 1 mps 757 mmHg 89%
    03:00 +6°C° 0 mm 1 mps 757 mmHg 88%
    04:00 +6°C° 0 mm 1 mps 757 mmHg 86%
    05:00 +6°C° 0 mm 1 mps 757 mmHg 83%
    06:00 +5°C° 0 mm 1 mps 757 mmHg 81%
    07:00 +7°C° 0 mm 1 mps 757 mmHg 73%
    08:00 +7°C° 0 mm 2 mps 757 mmHg 66%
    09:00 +9°C° 0 mm 2 mps 757 mmHg 59%
    10:00 +12°C° 0 mm 2 mps 757 mmHg 55%
    11:00 +13°C° 0 mm 1 mps 756 mmHg 52%
    12:00 +15°C° 0 mm 1 mps 755 mmHg 48%
    13:00 +15°C° 0 mm 1 mps 754 mmHg 51%
    14:00 +15°C° 0 mm 1 mps 754 mmHg 53%
    15:00 +16°C° 0 mm 1 mps 753 mmHg 55%
    16:00 +14°C° 0 mm 1 mps 753 mmHg 62%
    17:00 +11°C° 0 mm 0 mps 753 mmHg 68%
    18:00 +9°C° 0 mm 0 mps 753 mmHg 75%
    19:00 +9°C° 0 mm 0 mps 753 mmHg 78%
    20:00 +8°C° 0 mm 0 mps 753 mmHg 81%
    21:00 +8°C° 0 mm 0 mps 753 mmHg 85%
    22:00 +8°C° 0 mm 1 mps 753 mmHg 85%
    23:00 +8°C° 0 mm 1 mps 753 mmHg 86%

    18 November, Monday

    Time Temperature Precipitation Wind Pressure Humidity
    00:00 +8°C° 0 mm 1 mps 753 mmHg 86%
    01:00 +7°C° 0 mm 1 mps 753 mmHg 87%
    02:00 +7°C° 0 mm 1 mps 753 mmHg 87%
    03:00 +6°C° 0 mm 1 mps 753 mmHg 87%
    04:00 +6°C° 0 mm 1 mps 753 mmHg 88%
    05:00 +5°C° 0 mm 1 mps 753 mmHg 88%
    06:00 +5°C° 0 mm 1 mps 753 mmHg 89%
    07:00 +7°C° 0 mm 1 mps 753 mmHg 82%
    08:00 +8°C° 0 mm 1 mps 754 mmHg 75%
    09:00 +10°C° 0 mm 1 mps 754 mmHg 68%
    10:00 +11°C° 0 mm 1 mps 753 mmHg 62%
    11:00 +13°C° 0 mm 2 mps 753 mmHg 57%
    12:00 +14°C° 0 mm 2 mps 752 mmHg 52%
    13:00 +14°C° 0 mm 2 mps 752 mmHg 52%
    14:00 +14°C° 0 mm 2 mps 752 mmHg 52%
    15:00 +14°C° 0 mm 2 mps 752 mmHg 52%
    16:00 +13°C° 0 mm 2 mps 752 mmHg 58%
    17:00 +10°C° 0 mm 2 mps 752 mmHg 65%
    18:00 +9°C° 0 mm 2 mps 753 mmHg 71%
    19:00 +9°C° 0 mm 1 mps 753 mmHg 73%
    20:00 +9°C° 0 mm 1 mps 753 mmHg 74%
    21:00 +8°C° 0 mm 1 mps 754 mmHg 76%
    22:00 +8°C° 0 mm 1 mps 754 mmHg 77%
    23:00 +8°C° 0 mm 1 mps 754 mmHg 78%

    19 November, Tuesday

    Time Temperature Precipitation Wind Pressure Humidity
    00:00 +8°C° 0 mm 1 mps 754 mmHg 79%
    01:00 +7°C° 0 mm 1 mps 753 mmHg 81%
    02:00 +6°C° 0 mm 0 mps 753 mmHg 82%
    03:00 +6°C° 0 mm 0 mps 753 mmHg 83%
    04:00 +7°C° 0 mm 1 mps 753 mmHg 84%
    05:00 +7°C° 0 mm 1 mps 754 mmHg 85%
    06:00 +7°C° 0 mm 1 mps 754 mmHg 86%
    07:00 +8°C° 0 mm 2 mps 754 mmHg 82%
    08:00 +10°C° 0 mm 2 mps 754 mmHg 78%
    09:00 +13°C° 0 mm 2 mps 755 mmHg 73%
    10:00 +14°C° 0 mm 3 mps 754 mmHg 69%
    11:00 +16°C° 0 mm 3 mps 754 mmHg 65%
    12:00 +18°C° 0 mm 4 mps 754 mmHg 61%
    13:00 +18°C° 0 mm 4 mps 753 mmHg 62%
    14:00 +18°C° 0 mm 4 mps 753 mmHg 64%
    15:00 +18°C° 0 mm 4 mps 753 mmHg 65%
    16:00 +16°C° 0 mm 3 mps 754 mmHg 71%
    17:00 +14°C° 0 mm 3 mps 754 mmHg 77%
    18:00 +13°C° 0 mm 2 mps 754 mmHg 82%
    19:00 +13°C° 0 mm 2 mps 755 mmHg 83%
    20:00 +12°C° 0 mm 2 mps 755 mmHg 84%
    21:00 +12°C° 0 mm 2 mps 756 mmHg 85%
    22:00 +10°C° 0 mm 2 mps 756 mmHg 87%
    23:00 +9°C° 0 mm 2 mps 756 mmHg 89%

    20 November, Wednesday

    Time Temperature Precipitation Wind Pressure Humidity
    00:00 +9°C° 0 mm 2 mps 757 mmHg 91%
    01:00 +9°C° 0 mm 1 mps 757 mmHg 92%
    02:00 +9°C° 0 mm 1 mps 757 mmHg 92%
    03:00 +9°C° 0 mm 1 mps 757 mmHg 93%
    04:00 +8°C° 0 mm 1 mps 758 mmHg 92%
    05:00 +8°C° 0 mm 1 mps 758 mmHg 92%
    06:00 +7°C° 0 mm 0 mps 758 mmHg 92%
    07:00 +9°C° 0 mm 0 mps 759 mmHg 84%
    08:00 +11°C° 0 mm 0 mps 759 mmHg 76%
    09:00 +13°C° 0 mm 0 mps 760 mmHg 68%
    10:00 +15°C° 0 mm 1 mps 760 mmHg 62%
    11:00 +16°C° 0 mm 1 mps 759 mmHg 55%
    12:00 +19°C° 0 mm 1 mps 759 mmHg 49%
    13:00 +18°C° 0 mm 2 mps 759 mmHg 50%
    14:00 +18°C° 0 mm 2 mps 759 mmHg 51%
    15:00 +18°C° 0 mm 2 mps 759 mmHg 52%
    16:00 +17°C° 0 mm 2 mps 759 mmHg 58%
    17:00 +15°C° 0 mm 1 mps 759 mmHg 65%
    18:00 +13°C° 0 mm 1 mps 760 mmHg 71%
    19:00 +13°C° 0 mm 1 mps 760 mmHg 74%
    20:00 +12°C° 0 mm 1 mps 760 mmHg 76%
    21:00 +12°C° 0 mm 1 mps 761 mmHg 78%
    22:00 +12°C° 0 mm 1 mps 761 mmHg 80%
    23:00 +11°C° 0 mm 1 mps 761 mmHg 82%
    Show more